Preview of NWS' New Version of Forecast
This preview is not operational and should not be used for support decisions.

Regional Weather Roundup (RWR)

Issued by National Weather Service (NWS)

                            
000
ASUS44 KMEG 210410
RWRTN 
TENNESSEE HOURLY STATE WEATHER ROUNDUP
NATIONAL WEATHER SERVICE MEMPHIS TN
1100 PM CDT FRI SEP 20 2019

TNZ002-004-019-021-049-052-054-088>092-210500-
WEST TENNESSEE
  
CITY           SKY/WX    TMP DP  RH WIND       PRES   REMARKS
MEMPHIS INTL   FAIR      78  66  66 S10       30.16R                  
NWS MEMPHIS      N/A     55 N/A N/A MISG        N/A                   
JACKSON        FAIR      68  65  90 S3        30.18S                  
DYERSBURG      FAIR      75  66  73 CALM      30.17S                  
SOMERVILLE     CLEAR     75  64  69 S5        30.16S                  
COVINGTON      CLEAR     73  64  73 S3        30.16R                  
UNION CITY     CLEAR     73  66  78 S6        30.15R                  
BOLIVAR        CLEAR     72  64  78 CALM      30.17S                  
PARIS          CLEAR     70  64  83 CALM      30.18R                  
HUNTINGDON     CLEAR     73  64  73 CALM      30.17S                  
LEXINGTON      CLEAR     68  66  94 CALM      30.18S                  
SELMER         CLEAR     70  64  83 CALM      30.19R                  
SAVANNAH       PTCLDY    72  64  78 S3        30.19R                  
$$

TNZ008-025-027-028-033-062-065-066-210500-
NORTH MIDDLE TENNESSEE
  
CITY           SKY/WX    TMP DP  RH WIND       PRES   REMARKS
NASHVILLE      MOCLDY    73  61  65 S6        30.22S                  
DICKSON        CLEAR     75  59  57 S6        30.20S                  
PORTLAND       CLEAR     68  64  88 S5        30.21S                  
CLARKSVILLE    FAIR      73  64  73 SE3       30.19R                  
LEBANON        PTCLDY    68  63  83 CALM      30.20S                  
SMYRNA         FAIR      69  64  84 S3        30.23S                  
MURFREESBORO   PTCLDY    73  59  60 S7        30.21S                  
LIVINGSTON       N/A     72  59  64 CALM      30.26S                  
CROSSVILLE     FAIR      63  56  78 CALM      30.31R                  
ROCKWOOD       CLEAR     68  57  68 SW6       30.29R                  
$$

TNZ061-075-076-078-094-096-097-210500-
SOUTH MIDDLE TENNESSEE
  
CITY           SKY/WX    TMP DP  RH WIND       PRES   REMARKS
LAWRENCEBURG   PTCLDY    70  59  68 SE6       30.23R                  
LEWISBURG      CLEAR     68  61  77 CALM      30.22S                  
FAYETTEVILLE   CLEAR     70  57  64 SE6       30.24S                  
TULLAHOMA      PTCLDY    66  57  72 SE3       30.25S                  
WINCHESTER     CLEAR     68  57  68 MISG      30.26R                  
MCMINNVILLE    CLEAR     64  59  82 CALM      30.25S                  
COLUMBIA       CLEAR     68  68 100 SW3       30.20S                  
SHELBYVILLE    CLEAR     70  59  68 SE5       30.23S                  
$$

TNZ017-018-042-046-047-210500-
NORTHEAST TENNESSEE
  
CITY           SKY/WX    TMP DP  RH WIND       PRES   REMARKS
TRI CITIES     FAIR      63  60  90 CALM      30.30R                  
ELIZABETHTON   FAIR      64  61  88 CALM      30.30S                  
GREENEVILLE    CLEAR     70  59  68 VRB5      30.28S                  
$$

TNZ012-013-036-069-073-074-210500-
CENTRAL EAST TENNESSEE
  
CITY           SKY/WX    TMP DP  RH WIND       PRES   REMARKS
KNOXVILLE      FAIR      73  60  63 CALM      30.26R                  
OAK RIDGE      FAIR      70  62  76 CALM      30.28R                  
DOWNTOWN KNOXV MOCLDY    68  66  94 CALM      30.26S                  
GATLINBURG     MOCLDY    70  63  78 CALM      30.26R                  
MORRISTOWN     PTCLDY    68  63  83 CALM      30.27R                  
JACKSBORO      CLEAR     64  63  94 CALM      30.30S                  
$$

TNZ083-085-099-210500-
SOUTHEAST TENNESSEE
  
CITY           SKY/WX    TMP DP  RH WIND       PRES   REMARKS
CHATTANOOGA    FAIR      70  60  70 CALM      30.28R                  
$$

SKY/WX REPORTED AS FAIR MEANS FEW OR NO CLOUDS BELOW
12 THOUSAND FEET.